Weather reports worldwide

Advertisment
Foggia Amendola, Italy (16261): temperature & dewpoint: 14.06.2019 06:00:00 - 20.06.2019 06:00:00 (CEST)Foggia Amendola, Italy (16261): wind speed: 14.06.2019 06:00:00 - 20.06.2019 06:00:00 (CEST)Foggia Amendola, Italy (16261): wind direction: 14.06.2019 06:00:00 - 20.06.2019 06:00:00 (CEST)Foggia Amendola, Italy (16261): reduced air pressure: 14.06.2019 06:00:00 - 20.06.2019 06:00:00 (CEST)Foggia Amendola, Italy (16261): visibility: 14.06.2019 06:00:00 - 20.06.2019 06:00:00 (CEST)Foggia Amendola, Italy (16261): sunshine duration: 14.06.2019 06:00:00 - 20.06.2019 06:00:00 (CEST)
Date & Time tt [°C] td [°C] ff [km/h] ff [kn] dd ppp [hPa] vv [km] sd [min]
20.06.2019 06:00:00 - - - - - - - -
20.06.2019 05:00:00 18,8 17,0 5 3 W 1012,1 12 0
20.06.2019 04:00:00 18,0 18,0 9 5 WSW - 10 -
20.06.2019 03:00:00 19,0 19,0 8 4 WNW - 10 -
20.06.2019 02:00:00 20,0 20,0 4 2 WNW 1012,6 12 -
20.06.2019 01:00:00 20,0 20,0 9 5 SW - 10 -
20.06.2019 00:00:00 22,0 20,0 4 2 - - 10 -
19.06.2019 23:00:00 22,8 20,3 5 3 NNW 1012,5 15 -
19.06.2019 22:00:00 23,0 22,0 9 5 NE - 10 -
19.06.2019 21:00:00 24,0 21,0 9 5 ESE - 10 -
19.06.2019 20:00:00 25,0 19,2 5 3 E 1011,5 10 30
19.06.2019 19:00:00 27,0 20,0 5 3 E - 10 -
19.06.2019 18:00:00 26,0 17,0 18 10 E - 10 -
19.06.2019 17:00:00 28,0 13,2 24 13 E 1010,9 10 30
19.06.2019 16:00:00 30,0 13,0 21 11 E - 10 -
19.06.2019 15:00:00 30,0 15,0 22 12 E - 10 -
19.06.2019 14:00:00 31,0 15,8 21 11 ENE 1012,5 20 60
19.06.2019 13:00:00 31,0 15,0 15 8 E - 10 -
19.06.2019 12:00:00 31,0 16,0 13 7 E - 10 -
19.06.2019 11:00:00 29,0 14,8 9 5 E 1012,9 20 60
19.06.2019 10:00:00 27,0 17,0 4 2 S - 10 -
19.06.2019 09:00:00 24,0 18,0 4 2 N - 10 -
19.06.2019 08:00:00 19,6 17,7 5 3 WSW 1013,1 20 12
19.06.2019 07:00:00 17,0 16,0 4 2 SW - 10 -
19.06.2019 06:00:00 18,0 17,0 5 3 W - 10 -
19.06.2019 05:00:00 18,2 18,2 8 4 WNW 1013,1 15 -
19.06.2019 04:00:00 19,0 19,0 8 4 W - 10 -
19.06.2019 03:00:00 19,0 18,0 8 4 WSW - 10 -
19.06.2019 02:00:00 20,0 18,0 5 3 SW 1014,0 15 -
19.06.2019 01:00:00 20,0 18,0 2 1 - - 10 -
19.06.2019 00:00:00 21,0 21,0 5 3 - - 10 -
18.06.2019 23:00:00 22,6 20,5 8 4 S 1013,4 15 -
18.06.2019 22:00:00 24,0 18,0 9 5 NNE - 10 -
18.06.2019 21:00:00 26,0 19,0 8 4 SW - 10 -
18.06.2019 20:00:00 26,2 21,2 13 7 SE 1013,3 15 0
18.06.2019 19:00:00 28,0 21,0 16 9 ESE - 10 -
18.06.2019 18:00:00 28,0 19,0 16 9 ESE - 10 -
18.06.2019 17:00:00 28,8 19,2 21 11 E 1012,7 20 54
18.06.2019 16:00:00 30,0 18,0 21 11 E - 10 -
18.06.2019 15:00:00 29,0 17,0 18 10 ENE - 10 -
18.06.2019 14:00:00 30,2 17,7 21 11 ENE 1013,3 20 54
18.06.2019 13:00:00 31,0 15,0 9 5 W - 10 -
18.06.2019 12:00:00 31,0 15,0 8 4 WSW - 10 -
18.06.2019 11:00:00 29,2 14,6 15 8 W 1013,3 20 60
18.06.2019 10:00:00 28,0 16,0 13 7 W - 10 -
18.06.2019 09:00:00 26,0 18,0 16 9 WNW - 10 -
18.06.2019 08:00:00 22,6 18,6 21 11 WNW 1012,4 10 60
18.06.2019 07:00:00 21,0 19,0 16 9 W - 10 -
18.06.2019 06:00:00 20,0 19,0 15 8 WNW - 10 -
18.06.2019 05:00:00 19,8 19,5 15 8 WNW 1012,5 10 0
18.06.2019 04:00:00 19,0 18,0 15 8 WNW - 10 -
18.06.2019 03:00:00 18,0 16,0 15 8 WNW - 10 -
18.06.2019 02:00:00 20,0 19,2 15 8 W 1012,4 10 0
18.06.2019 01:00:00 21,0 21,0 13 7 W - 10 -
18.06.2019 00:00:00 22,0 21,0 15 8 WNW - 10 -
17.06.2019 23:00:00 22,0 21,5 9 5 NW 1012,2 10 0
17.06.2019 22:00:00 23,0 22,0 11 6 N - 10 -
17.06.2019 21:00:00 24,0 21,0 16 9 WNW - 10 -
17.06.2019 20:00:00 27,2 20,3 21 11 WNW 1011,3 20 54
17.06.2019 19:00:00 30,0 15,0 22 12 WNW - 10 -
17.06.2019 18:00:00 32,0 15,0 16 9 ESE - 10 -
17.06.2019 17:00:00 32,0 15,1 13 7 ESE 1010,7 20 60
17.06.2019 16:00:00 33,0 14,0 13 7 WSW - 10 -
17.06.2019 15:00:00 32,0 15,0 5 3 NNE - 10 -
17.06.2019 14:00:00 31,8 12,6 18 10 E 1012,0 20 60
17.06.2019 13:00:00 33,0 9,0 15 8 W - 10 -
17.06.2019 12:00:00 32,0 9,0 15 8 W - 10 -
17.06.2019 11:00:00 30,6 13,0 18 10 WNW 1012,0 20 60
17.06.2019 10:00:00 29,0 13,0 15 8 WNW - 10 -
17.06.2019 09:00:00 25,0 17,0 11 6 WNW - 10 -
17.06.2019 08:00:00 23,0 16,6 13 7 NW 1012,6 20 60
17.06.2019 07:00:00 21,0 17,0 9 5 NW - 10 -
17.06.2019 06:00:00 21,0 18,0 9 5 W - 10 -
17.06.2019 05:00:00 18,2 15,5 9 5 W 1011,8 15 -
17.06.2019 04:00:00 20,0 20,0 11 6 W - 10 -
17.06.2019 03:00:00 20,0 20,0 11 6 W - 10 -
17.06.2019 02:00:00 20,0 19,2 13 7 W 1012,2 15 -
17.06.2019 01:00:00 20,0 20,0 9 5 W - 10 -
17.06.2019 00:00:00 21,0 21,0 5 3 W - 10 -
16.06.2019 23:00:00 23,6 22,4 13 7 W 1012,4 12 -
16.06.2019 22:00:00 24,0 20,0 9 5 WSW - 10 -
16.06.2019 21:00:00 26,0 21,0 9 5 S - 10 -
16.06.2019 20:00:00 30,0 18,4 11 6 SSE 1011,0 10 0
16.06.2019 19:00:00 32,0 18,0 5 3 N - 10 -
16.06.2019 18:00:00 33,0 17,0 9 5 WSW - 10 -
16.06.2019 17:00:00 35,0 14,8 15 8 W 1010,7 10 60
16.06.2019 16:00:00 35,0 16,0 16 9 W - 10 -
16.06.2019 15:00:00 35,0 15,0 9 5 W - 10 -
16.06.2019 14:00:00 33,0 14,6 15 8 WNW 1011,8 10 60
16.06.2019 13:00:00 33,0 16,0 24 13 W - 10 -
16.06.2019 12:00:00 33,0 16,0 24 13 WNW - 10 -
16.06.2019 11:00:00 31,8 16,5 21 11 WNW 1012,1 10 60
16.06.2019 10:00:00 31,0 15,0 22 12 WNW - 10 -
16.06.2019 09:00:00 29,0 16,0 22 12 WNW - 10 -
16.06.2019 08:00:00 25,4 17,1 21 11 WNW 1011,6 20 30
16.06.2019 07:00:00 23,0 18,0 16 9 W - 10 -
16.06.2019 06:00:00 21,0 18,0 13 7 W - 10 -
16.06.2019 05:00:00 21,0 18,4 11 6 SW 1011,5 12 -
16.06.2019 04:00:00 22,0 19,0 16 9 W - 10 -
16.06.2019 03:00:00 21,0 18,0 16 9 WSW - 10 -
16.06.2019 02:00:00 21,4 19,7 15 8 W 1011,8 12 -
16.06.2019 01:00:00 21,0 21,0 18 10 WSW - 10 -
16.06.2019 00:00:00 24,0 20,0 18 10 W - 10 -
15.06.2019 23:00:00 24,4 19,5 26 14 W 1011,8 12 -
15.06.2019 22:00:00 24,0 24,0 15 8 WNW - 10 -
15.06.2019 21:00:00 25,0 20,0 - - - - 10 -
15.06.2019 20:00:00 27,8 21,6 9 5 E 1010,4 12 6
15.06.2019 19:00:00 29,0 20,0 13 7 E - 10 -
15.06.2019 18:00:00 31,0 19,0 16 9 E - 10 -
15.06.2019 17:00:00 33,0 13,1 18 10 E 1010,9 12 30
15.06.2019 16:00:00 36,0 12,0 16 9 E - 10 -
15.06.2019 15:00:00 36,0 14,0 9 5 E - 10 -
15.06.2019 14:00:00 36,0 14,1 13 7 W 1012,0 12 18
15.06.2019 13:00:00 36,0 11,0 11 6 WNW - 10 -
15.06.2019 12:00:00 35,0 16,0 16 9 WNW - 10 -
15.06.2019 11:00:00 33,8 17,5 5 3 - 1012,8 12 54
15.06.2019 10:00:00 29,0 19,0 5 3 E - 10 -
15.06.2019 09:00:00 26,0 22,0 8 4 ENE - 10 -
15.06.2019 08:00:00 22,4 17,8 5 3 SE 1013,6 20 0
15.06.2019 07:00:00 22,0 17,0 4 2 E - 10 -
15.06.2019 06:00:00 21,0 19,0 4 2 - - 10 -
15.06.2019 05:00:00 20,0 16,4 5 3 - 1015,1 20 -
15.06.2019 04:00:00 20,0 18,0 4 2 - - 10 -
15.06.2019 03:00:00 20,0 18,0 9 5 WSW - 10 -
15.06.2019 02:00:00 21,0 18,4 11 6 WNW 1015,6 20 -
15.06.2019 01:00:00 21,0 17,0 11 6 W - 10 -
15.06.2019 00:00:00 22,0 15,0 11 6 W - 10 -
14.06.2019 23:00:00 23,0 12,0 8 4 WNW 1015,8 30 -
14.06.2019 22:00:00 24,0 13,0 9 5 NW - 10 -
14.06.2019 21:00:00 26,0 11,0 5 3 NW - 10 -
14.06.2019 20:00:00 29,4 11,0 9 5 E 1014,9 15 30
14.06.2019 19:00:00 32,0 11,0 13 7 E - 10 -
14.06.2019 18:00:00 33,0 12,0 15 8 E - 10 -
14.06.2019 17:00:00 33,8 9,8 16 9 E 1015,8 20 60
14.06.2019 16:00:00 34,0 10,0 15 8 E - 10 -
14.06.2019 15:00:00 34,0 11,0 18 10 E - 10 -
14.06.2019 14:00:00 34,4 9,6 18 10 E 1016,6 20 60
14.06.2019 13:00:00 35,0 11,0 18 10 E - 10 -
14.06.2019 12:00:00 33,0 10,0 4 2 - - 10 -
14.06.2019 11:00:00 31,2 14,4 4 2 N 1017,3 20 60
14.06.2019 10:00:00 28,0 16,0 5 3 NNW - 10 -
14.06.2019 09:00:00 25,0 16,0 5 3 NW - 10 -
14.06.2019 08:00:00 21,8 17,2 9 5 WNW 1016,4 15 0
14.06.2019 07:00:00 19,0 16,0 9 5 WNW - 10 -
14.06.2019 06:00:00 17,0 16,0 9 5 W - 10 -

tt = temperature
td = dewpoint
ff = wind speed
dd = wind direction
ppp = reduced air pressure
vv = visibility
sd = sunshine duration

Next stations